Flag for Moldova Weather past 2 weeks in Chisinau, Moldova

Now
27 °F

Passing clouds.


Feels Like: 21 °F
Forecast: 21 / 27 °F
Wind: 5 mph from Southeast

Location: Chisinau International Airport

Current Time: Dec 28, 2014 at 6:43:34 PM

Latest Report: Dec 28, 2014 at 6:00 PM


Visibility: N/A

Pressure: 29.95 "Hg

Humidity: 74%

Dew point: 19 °F

Location of ChisinauLocation

Historic Weather in Chisinau — Graph

°F

Chisinau temperature yesterday

Maximum temperature yesterday: 34 °F (at 12:00 AM)
Minimum temperature yesterday: 27 °F (at 4:00 PM)
Average temperature yesterday: 29 °F

Past Weeks' High & Low Weather Summary

 TemperatureHumidityPressure
High57 °F (Dec 24, 1:00 PM)93% (Dec 14, 8:00 PM)30.24 "Hg (Dec 14, 8:00 PM)
Low18 °F (Dec 28, 7:30 AM)39% (Dec 24, 1:30 PM)29.77 "Hg (Dec 23, 4:00 AM)
Average38 °F75%30.01 "Hg
* Reported Dec 13 5:00 PM — Dec 28 5:30 PM, Chisinau, Weather by CustomWeather, © 2014

Note: Actual official high and low records may vary slightly from our data, if they occured in-between our weather recording intervals... More about our weather records

Advertising

Chisinau weather history for previous 24 hours

 ConditionsComfort  
Time TempWeatherWind HumidityBarometerVisibility
5:30 PM
Dec 28
27 °FClear.7 mph74%29.92 "Hg10 mi
5:00 PM27 °FClear.7 mph74%29.92 "Hg10 mi
4:30 PM28 °FClear.6 mph69%29.92 "Hg10 mi
4:00 PM30 °FSunny.5 mph64%29.92 "Hg10 mi
3:30 PM32 °FSunny.7 mph64%29.92 "Hg10 mi
3:00 PM32 °FPassing clouds.3 mph64%29.95 "HgN/A
2:30 PM32 °FPassing clouds.3 mph64%29.95 "HgN/A
2:00 PM32 °FSunny.2 mph60%29.95 "Hg10 mi
1:30 PM32 °FSunny.No wind60%29.95 "Hg10 mi
1:00 PM32 °FSunny.2 mph55%29.95 "Hg10 mi
12:30 PM32 °FPassing clouds.5 mph60%29.95 "HgN/A
12:00 PM32 °FSunny.1 mph64%29.95 "Hg10 mi
11:30 AM28 °FPassing clouds.6 mph69%29.95 "HgN/A
11:00 AM28 °FPassing clouds.6 mph69%29.95 "HgN/A
10:30 AM27 °FSunny.2 mph74%29.95 "Hg10 mi
10:00 AM25 °FSunny.1 mph74%29.95 "Hg10 mi
9:30 AM25 °FSunny.2 mph74%29.92 "Hg10 mi
9:00 AM23 °FSunny.7 mph80%29.92 "Hg10 mi
8:30 AM21 °FSunny.9 mph80%29.92 "Hg10 mi
8:00 AM19 °FSunny.9 mph79%29.92 "Hg10 mi
7:30 AM18 °FPassing clouds.3 mph86%29.92 "HgN/A
7:00 AM19 °FPassing clouds.7 mph79%29.89 "HgN/A
6:30 AM19 °FPassing clouds.8 mph79%29.89 "HgN/A
5:30 AM23 °FPassing clouds.7 mph74%29.86 "HgN/A
5:00 AM23 °FPassing clouds.8 mph80%29.86 "HgN/A
4:30 AM21 °FPassing clouds.7 mph80%29.86 "HgN/A
4:00 AM23 °FPassing clouds.7 mph74%29.83 "HgN/A
3:30 AM23 °FClear.9 mph74%29.83 "Hg10 mi
3:00 AM23 °FClear.8 mph80%29.83 "Hg10 mi
2:30 AM25 °FClear.8 mph74%29.83 "Hg10 mi
2:00 AM25 °FPassing clouds.9 mph74%29.80 "HgN/A
1:30 AM25 °FPassing clouds.8 mph74%29.80 "HgN/A
1:00 AM25 °FPassing clouds.7 mph74%29.80 "HgN/A
12:30 AM27 °FPassing clouds.8 mph69%29.80 "HgN/A
12:00 AM27 °FPassing clouds.8 mph69%29.80 "HgN/A
11:30 PM
Dec 27
27 °FPassing clouds.12 mph74%29.80 "HgN/A
11:00 PM28 °FOvercast.15 mph69%29.80 "HgN/A
10:30 PM28 °FSnow flurries. Overcast.12 mph69%29.77 "HgN/A
10:00 PM28 °FSnow flurries. Overcast.13 mph69%29.77 "HgN/A
9:30 PM28 °FSnow flurries. Mostly cloudy.10 mph69%29.77 "HgN/A
9:00 PM27 °FSnow flurries. Mostly cloudy.12 mph80%29.77 "Hg5 mi
8:30 PM27 °FSnow showers. Mostly cloudy.14 mph80%29.77 "Hg2 mi
8:00 PM27 °FSnow showers. Mostly cloudy.14 mph80%29.77 "Hg2 mi
7:30 PM27 °FSnow flurries. Mostly cloudy.13 mph80%29.77 "Hg2 mi
7:00 PM27 °FSnow showers. Mostly cloudy.14 mph80%29.80 "Hg2 mi
6:30 PM27 °FSnow showers. Mostly cloudy.10 mph80%29.80 "Hg1 mi
6:00 PM27 °FSnow showers. Mostly cloudy.12 mph80%29.80 "Hg2 mi
Weather by CustomWeather, © 2014

See weather overviewHow to use our weather pages